GW3031 Weather Reports


Display with metric or nautical units.
time (UTC)temp
F
wind
direction
speed
MPH
gust
MPH
rain 1hr
in
rain 24hr
in
rain mn
in
humidity
%
barometer
mb
20260504100109 49 0 0.0 0.0 0.00 0.00 0.00 65 1013.9
20260504090123 50 0 0.0 0.0 0.00 0.00 0.00 65 1014.3
20260504081558 50 0 0.0 3.0 0.00 0.00 0.00 62 1014.3
20260504050106 45 0 0.0 0.0 0.00 0.00 0.00 73 1014.7
20260504044620 45 0 0.0 0.0 0.00 0.00 0.00 73 1014.8
20260504043101 44 0 0.0 0.0 0.00 0.00 0.00 73 1014.8
20260504041558 45 0 0.0 0.0 0.00 0.00 0.00 70 1014.7
20260504040120 45 0 0.0 0.0 0.00 0.00 0.00 70 1014.6
20260504034615 46 0 0.0 0.0 0.00 0.00 0.00 66 1014.8
20260504033059 46 0 0.0 0.0 0.00 0.00 0.00 63 1014.7
20260504031600 47 0 0.0 0.0 0.00 0.00 0.00 63 1014.5
20260504024604 47 0 0.0 0.0 0.00 0.00 0.00 61 1014.3
20260504023058 48 0 0.0 0.0 0.00 0.00 0.00 61 1014.3
20260504021558 48 0 0.0 0.0 0.00 0.00 0.00 60 1014.2
20260504020100 48 0 0.0 0.0 0.00 0.00 0.00 58 1014.0
20260504014559 49 0 0.0 0.0 0.00 0.00 0.00 58 1013.9
20260504013118 50 0 0.0 0.0 0.00 0.00 0.00 57 1013.9
20260504011603 51 0 0.0 0.0 0.00 0.00 0.00 56 1013.8
20260504010107 52 0 0.0 0.0 0.00 0.00 0.00 53 1013.8
20260504004610 53 0 0.0 0.0 0.00 0.00 0.00 50 1013.8
20260504003059 54 0 0.0 0.0 0.00 0.00 0.00 47 1013.6
20260504001608 55 0 0.0 0.0 0.00 0.00 0.00 46 1013.6
20260504000136 57 0 0.0 0.0 0.00 0.00 0.00 43 1013.4
20260503234608 58 0 0.0 0.0 0.00 0.00 0.00 42 1013.3
20260503233109 58 0 0.0 0.0 0.00 0.00 0.00 42 1013.2
20260503231559 59 0 0.0 0.0 0.00 0.00 0.00 41 1013.0
20260503230109 59 0 0.0 0.0 0.00 0.00 0.00 40 1013.0
20260503224559 60 0 0.0 0.0 0.00 0.00 0.00 39 1013.0
20260503223102 60 0 0.0 1.0 0.00 0.00 0.00 37 1013.1
20260503221605 61 0 0.0 1.0 0.00 0.00 0.00 36 1013.1
20260503220121 61 0 0.0 1.0 0.00 0.00 0.00 37 1013.1
20260503214601 61 171 0.0 0.0 0.00 0.00 0.00 37 1013.1
20260503213102 62 0 0.0 2.0 0.00 0.00 0.00 36 1013.2
20260503211559 62 0 0.0 1.0 0.00 0.00 0.00 37 1013.2
20260503210059 62 0 0.0 4.0 0.00 0.00 0.00 37 1013.2
20260503204604 63 0 0.0 1.0 0.00 0.00 0.00 37 1013.4
20260503203100 63 0 0.0 1.0 0.00 0.00 0.00 36 1013.4
20260503201558 63 0 0.0 1.0 0.00 0.00 0.00 37 1013.6
20260503200104 63 0 0.0 5.0 0.00 0.00 0.00 39 1013.8
20260503194603 63 0 0.0 3.0 0.00 0.00 0.00 37 1014.0
20260503193100 63 0 0.0 3.0 0.00 0.00 0.00 39 1014.1
20260503191558 62 0 0.0 4.0 0.00 0.00 0.00 37 1014.4
20260503190059 63 0 0.0 2.0 0.00 0.00 0.00 40 1014.6
20260503184605 62 0 0.0 3.0 0.00 0.00 0.00 42 1014.6
20260503183058 62 0 0.0 2.0 0.00 0.00 0.00 41 1014.9
20260503181603 61 0 0.0 4.0 0.00 0.00 0.00 41 1015.1
20260503180116 61 0 0.0 2.0 0.00 0.00 0.00 40 1015.2
20260503174559 61 351 0.0 4.0 0.00 0.00 0.00 40 1015.3
20260503173112 61 339 0.0 2.0 0.00 0.00 0.00 43 1015.4
20260503171601 60 0 0.0 4.0 0.00 0.00 0.00 42 1015.4
20260503170111 60 0 0.0 3.0 0.00 0.00 0.00 42 1015.5
20260503150104 54 0 0.0 5.0 0.00 0.00 0.00 47 1016.2